Location: Sydney
(46.1500°N, 60.1670°W)
Time: 08:36:09
(UTC-03:00)

Iridium 90 - Visible Passes

Search period start: 27 July 2016 00:00
Search period end: 06 August 2016 00:00
Orbit: 747 x 750 km, 86.4° (Epoch: 26 July)

Date Brightness Start Highest point End Pass type
(mag) Time Alt. Az. Time Alt. Az. Time Alt. Az.
27 Jul 6.3 01:27:48 10° NNW 01:32:25 36° W 01:32:57 35° W visible
27 Jul 7.5 23:07:05 10° NE 23:09:46 14° ENE 23:11:05 13° E visible
28 Jul 5.3 00:45:27 10° N 00:50:32 78° W 00:50:57 72° SW visible
29 Jul 5.8 00:03:29 10° N 00:08:26 49° E 00:08:57 47° ESE visible
29 Jul 7.1 01:44:24 10° NNW 01:48:10 21° W 01:48:48 21° W visible
29 Jul 6.8 23:22:01 10° NNE 23:26:07 24° ENE 23:26:57 23° E visible
30 Jul 6.0 01:01:37 10° NNW 01:06:26 44° W 01:06:49 43° W visible
30 Jul 7.6 22:41:48 10° NE 22:43:33 12° ENE 22:44:58 11° E visible
31 Jul 5.3 00:19:23 10° N 00:24:29 87° E 00:24:50 78° SSE visible
31 Jul 7.7 02:01:49 10° NW 02:03:47 12° WNW 02:04:41 12° W visible
31 Jul 6.1 23:37:31 10° N 23:42:19 41° E 23:42:51 39° E visible
01 Aug 6.9 01:18:05 10° NNW 01:22:12 26° W 01:22:42 25° W visible
01 Aug 7.0 22:56:13 10° NNE 22:59:56 20° ENE 23:00:52 19° E visible
02 Aug 5.8 00:35:28 10° NNW 00:40:24 53° W 00:40:44 52° WSW visible
02 Aug 5.3 23:53:19 10° N 23:58:24 72° E 23:58:45 69° ESE visible
03 Aug 7.6 01:35:04 10° NW 01:37:52 15° WNW 01:38:37 14° W visible
03 Aug 6.3 23:11:34 10° NNE 23:16:11 34° ENE 23:16:48 33° E visible
04 Aug 6.7 00:51:48 10° NNW 00:56:13 31° W 00:56:39 30° W visible
04 Aug 7.2 22:30:30 10° NNE 22:33:45 17° ENE 22:34:50 16° E visible
05 Aug 5.5 00:09:20 10° N 00:14:22 65° W 00:14:42 63° WSW visible
05 Aug 5.5 23:27:17 10° N 23:32:19 59° E 23:32:44 57° ESE visible
